Location: Unspecified
(0.0000°N, 0.0000°E)
Time: 20:37:52
(UTC+00:00)

BlueWalker 3 - Pass Details

Date: 01 June 2023
Orbit: 494 x 513 km, 53.2° (Epoch: 05 June)

Event Time Altitude Azimuth Distance (km) Brightness Sun altitude
Rises 05:05:54 0° 324° (NW) 2,602 5.4 -12.0°
Reaches altitude 10° 05:08:05 10° 323° (NW) 1,721 4.5 -11.5°
Maximum altitude 05:11:59 78° 237° (WSW) 524 1.9 -10.6°
Drops below altitude 10° 05:15:54 10° 150° (SSE) 1,729 4.8 -9.7°
Sets 05:18:06 0° 148° (SSE) 2,616 5.7 -9.2°
